Regional Weather Roundup
Issued by NWS Charleston, SC

Current Version | Previous Version | Graphics & Text | Print | Product List | Glossary On
Versions: 1 2 3 4 5 6 7 8 9 10 11 12 13 14 15 16 17 18 19 20 21 22 23 24 25 26 27 28 29 30 31 32 33 34 35 36 37 38 39 40 41 42 43 44 45 46 47 48 49 50
000 ASUS42 KCHS 221510 RWRCHS REGIONAL WEATHER ROUNDUP NATIONAL WEATHER SERVICE CHARLESTON SC 1000 AM EST MON DEC 22 2014 NOTE: "FAIR" INDICATES FEW OR NO CLOUDS BELOW 12,000 FEET WITH NO SIGNIFICANT WEATHER AND/OR OBSTRUCTIONS TO VISIBILITY. NOT ALL STATIONS ARE QUALITY CONTROLLED BY THE NATIONAL WEATHER SERVICE. USE DATA WITH CAUTION...ESPECIALLY DEWPOINT OBSERVATIONS. SCZ027-030-031-034>040-042>050-221600- ...SOUTHEAST SOUTH CAROLINA... CITY SKY/WX TMP DP RH WIND PRES REMARKS N CHARLESTON CLOUDY 45 44 97 N7 30.09R FOG WATERFRONT PRK NOT AVBL MOUNT PLEASANT FOG 46 46 100 N7 30.09R VSB 1 PINOPOLIS N/A 46 45 93 NE8 30.01R MONCKS CORNER N/A 46 43 87 NE5 30.10R FOG SUMMERVILLE CLOUDY 45 45 100 N3 30.10S FOG BEAUFORT MCAS CLOUDY 48 46 93 N8 30.08S FOG BEAUFORT ARPT CLOUDY 46 46 100 N8 30.07R FOG HILTON HEAD IS FOG 50 50 100 N8 30.08R VSB 1 WALTERBORO CLOUDY 46 N/A N/A N6 30.10S FOG ALLENDALE LGT RAIN 45 45 100 NE3 30.09R ...SOUTHERN MIDLANDS AND PEE DEE... CITY SKY/WX TMP DP RH WIND PRES REMARKS GEORGETOWN NOT AVBL KINGSTREE NOT AVBL ORANGEBURG CLOUDY 44 42 93 NE5 30.10R BARNWELL CLOUDY 46 45 93 E8 30.10R AIKEN CLOUDY 45 45 100 NE8 30.10F FOG MANNING CLOUDY 45 N/A N/A N5 30.10 COLUMBIA CLOUDY 45 43 93 E7 30.10S FOG SUMTER DRIZZLE 43 41 93 E9 30.10R FOG FLORENCE CLOUDY 43 40 89 NE7 30.12R MYRTLE BEACH CLOUDY 45 41 87 N12 30.09 FOG N MYRTLE BEACH LGT RAIN 44 42 93 N9 30.08S FOG $$ GAZ063-065-086>088-099>101-113>116-118-119-134>141-150-221600- ...SOUTHEAST GEORGIA... CITY SKY/WX TMP DP RH WIND PRES REMARKS SAVANNAH ARPT DRZL/FOG 49 47 93 N8 30.07R VSB 1/2 HUNTER AAF CLOUDY 49 49 100 NE6 30.05R FOG FORT STEWART LGT RAIN 50 48 93 NE5 30.04S FOG STATESBORO LGT RAIN 46 46 100 E7 30.06F SYLVANIA LGT RAIN 46 46 100 E8 30.08S CLAXTON RAIN 48 48 100 E7 30.04F ...CSRA...CENTRAL AND FAR SOUTHEAST GEORGIA... CITY SKY/WX TMP DP RH WIND PRES REMARKS THOMSON CLOUDY 47 47 100 N7 30.13R AUGUSTA-BUSH CLOUDY 46 44 93 E5 30.09S FOG AUGUSTA-DANIEL CLOUDY 47 45 93 NE9 30.08S FOG SWAINSBORO LGT RAIN N/A N/A N/A E6 30.05F VIDALIA CLOUDY 46 46 100 NE5 30.05R FOG EASTMAN LGT RAIN 48 48 100 E9 30.04F HAZLEHURST LGT RAIN 50 50 100 E6 30.02S ALMA FOG 49 49 100 E6 30.02S VSB 1 WAYCROSS FOG 54 54 100 E5 30.02S VSB 1/4 JESUP FOG 52 52 100 CALM 30.05R VSB 1/2 BAXLEY CLOUDY 50 50 100 E6 30.02S BRUNSWICK CLOUDY 54 52 94 CALM 30.04R VSB 1/2 SAINT SIMONS FOG 55 54 96 N6 30.03R VSB 1 $$ SCZ027-028-034-036>038-045-046-048>050-GAZ119-141-221600- ...LAKE AND SUPPLEMENTAL COASTAL OBSERVATIONS... STATION/POSITION TIME TEMP WIND PRES WAVE SWELL AIR SEA DIR/SP/G HT/PER HT/PER/DIR (UTC) (F) (DEG/KT/KT) (MB) (FT/S) (FT/S/D) UPR LAKE MARION NOT AVBL WINYAH BAY 1400 45 350/ 5 1018.0S LAKE MURRAY 1400 44 40/ 3/ 8 1019.0R ACE BASIN NERRS 1400 46 10/ 1 1018.0S FORT PULASKI 1500 50 56 10/ 7/ 10 1018.3R SAPELO ISLAND NOT AVBL $$ ANZ835-935-AMZ111-154-330-350-352-354-370-450-454-472-221600- ...C-MAN AND BUOY OBSERVATIONS... STATION/POSITION TIME TEMP WIND PRES WAVE SWELL AIR SEA DIR/SP/G HT/PER HT/PER/DIR (UTC) (F) (DEG/KT/KT) (MB) (FT/S) (FT/S/D) BUOY 41004 1500 60 73 10/ 16/ 19 1017.0R 6/ 9 3/ 9 BUOY 41008 1500 57 59 30/ 12/ 14 1016.5R 3/ 9 2/ 60/ 9 FOLLY BEACH CMAN 1400 47 360/ 8/ 10 1018.7R CAPERS NEARSHORE 1400 47 30/ 10/ 14 N/A FRIPP NEARSHORE NOT AVBL STATION/POSITION TIME TEMP WIND PRES WAVE SWELL AIR SEA DIR/SP/G HT/PER HT/PER/DIR (UTC) (F) (DEG/KT/KT) (MB) (FT/S) (FT/S/D) 5E ST. MARYS GA 1500 61 N/A 3/ 6 FRYING PAN BUOY 1500 58 69 350/ 16/ 19 1017.8R 5/ 9 3/110/ 9 BUOY 41025 1500 69 1016.8F 9/ 7 CAPE LOOKOUT NC 1400 55 360/ 4/ 5 1016.7R BUOY 41002 1422 69 72 220/ 10/ 12 1019.9S 5/ 7 3/ 90/ 7 BUOY 41010 1500 74 77 160/ 2/ 4 1018.4S 4/ 9 3/ 40/ 9 ST AUGUSTINE FL 1500 64 160/ 6/ 6 1017.3R $$

USA.gov is the U.S. government's official web portal to all federal, state and local government web resources and services.